Date,TemperatureHighF,TemperatureAvgF,TemperatureLowF,DewpointHighF,DewpointAvgF,DewpointLowF,HumidityHigh,HumidityAvg,HumidityLow,PressureMaxIn,PressureMinIn,WindSpeedMaxMPH,WindSpeedAvgMPH,GustSpeedMaxMPH,PrecipitationSumIn
2013-1-1,16.0,7.4,-7.0,9.0,2.5,-12.0,85,79,69,30.41,30.25,7,-4,8,0.00
2013-1-2,9.0,-4.2,-12.0,1.0,-9.9,-19.0,80,75,68,30.44,30.38,6,-4,7,0.00
2013-1-3,14.0,-1.0,-12.0,3.0,-7.4,-19.0,80,74,61,30.40,30.33,6,3,8,0.00
2013-1-4,12.0,0.1,-11.0,3.0,-6.1,-18.0,80,74,64,30.37,30.29,6,3,7,0.00
2013-1-5,16.0,0.1,-8.0,4.0,-6.2,-14.0,79,74,58,30.40,30.21,9,3,11,0.00
2013-1-6,25.0,11.5,0.0,14.0,4.7,-5.0,83,73,60,30.21,30.00,24,5,35,0.00
2013-1-7,30.0,9.6,-4.0,26.0,4.8,-9.0,87,80,73,30.16,30.03,22,4,25,0.00
2013-1-8,37.0,31.9,28.0,30.0,26.0,23.0,87,78,70,30.27,30.03,24,13,29,0.00
2013-1-9,44.0,38.6,33.0,28.0,26.0,22.0,76,60,41,30.27,29.71,28,18,37,0.00
2013-1-10,43.0,29.0,20.0,30.0,22.0,16.0,88,76,44,29.71,29.50,31,18,40,0.00
2013-1-11,20.0,14.6,7.0,16.0,8.6,1.0,87,76,61,29.94,29.56,23,10,30,0.00
2013-1-12,10.0,-0.6,-16.0,3.0,-6.6,-22.0,81,75,63,30.07,29.94,8,4,10,0.00
2013-1-13,2.0,-3.6,-14.0,-2.0,-9.4,-21.0,79,75,68,30.16,30.06,6,3,7,0.00
2013-1-14,6.0,4.9,4.0,0.0,-1.4,-4.0,80,75,67,30.30,30.24,6,3,7,0.00
2013-1-15,11.0,6.6,4.0,6.0,1.1,-2.0,81,77,71,30.55,30.30,8,5,10,0.00
2013-1-16,12.0,6.1,-3.0,7.0,1.4,-8.0,83,80,75,30.61,30.56,6,4,7,0.00
2013-1-17,13.0,0.6,-8.0,5.0,-4.9,-14.0,81,77,69,30.59,30.46,6,3,6,0.00
2013-1-18,14.0,-1.4,-6.0,6.0,-6.9,-11.0,76,75,70,30.44,30.37,4,3,5,0.00
2013-1-19,14.0,-1.6,-8.0,6.0,-7.2,-13.0,80,76,69,30.49,30.40,5,3,6,0.00
2013-1-20,16.0,1.4,-5.0,6.0,-4.1,-10.0,80,77,64,30.45,30.40,5,3,6,0.00
2013-1-21,17.0,4.2,-7.0,8.0,-2.2,-13.0,79,74,63,30.41,30.30,6,3,7,0.00
2013-1-22,21.0,5.9,-6.0,9.0,-0.4,-12.0,81,75,60,30.34,30.24,5,3,7,0.00
2013-1-23,24.0,8.4,0.0,15.0,2.4,-5.0,80,76,64,30.25,30.12,6,3,7,0.00
2013-1-24,37.0,28.9,14.0,31.0,23.1,10.0,87,78,67,30.24,30.10,11,6,13,0.00
2013-1-25,41.0,36.8,32.0,33.0,31.4,29.0,89,80,72,30.25,30.02,17,7,23,0.00
2013-1-26,47.0,39.6,34.0,36.0,33.5,31.0,90,79,64,30.03,29.76,18,9,27,0.00
2013-1-27,37.0,29.3,26.0,33.0,25.5,19.0,91,86,75,29.85,29.75,20,15,28,0.00
2013-1-28,27.0,24.0,22.0,20.0,18.6,16.0,84,79,73,29.91,29.81,19,13,25,0.00
2013-1-29,27.0,23.7,17.0,22.0,19.1,13.0,86,82,71,30.07,29.76,17,7,22,0.00
2013-1-30,36.0,31.4,22.0,30.0,26.6,16.0,86,82,73,30.11,30.03,27,19,33,0.00
2013-1-31,38.0,35.9,33.0,31.0,30.3,29.0,85,79,74,30.27,30.17,19,14,24,0.00
2013-2-1,38.0,35.2,32.0,31.0,29.8,28.0,90,80,74,30.37,30.15,19,12,25,0.00
2013-2-2,36.0,30.6,25.0,30.0,27.1,21.0,92,87,75,30.47,30.33,12,5,15,0.00
2013-2-3,30.0,25.5,22.0,27.0,23.0,20.0,92,90,86,30.33,30.14,12,4,16,0.00
2013-2-4,42.0,32.0,26.0,27.0,24.6,21.0,92,75,50,30.17,30.05,12,6,15,0.00
2013-2-5,42.0,33.0,28.0,28.0,26.3,24.0,87,77,54,30.10,29.85,14,6,20,0.00
2013-2-6,37.0,31.7,27.0,28.0,25.8,20.0,89,78,65,30.14,29.88,20,11,26,0.00
2013-2-7,41.0,30.4,20.0,24.0,18.8,15.0,88,64,36,30.14,29.84,21,7,27,0.00
2013-2-8,36.0,30.6,25.0,29.0,23.4,17.0,89,74,51,29.84,29.65,18,7,29,0.00
2013-2-9,32.0,27.9,24.0,25.0,21.6,19.0,88,77,64,29.81,29.64,17,10,22,0.00
2013-2-10,31.0,25.1,16.0,23.0,14.3,2.0,89,64,45,30.05,29.81,22,11,29,0.00
2013-2-11,28.0,15.9,-2.0,18.0,5.5,-8.0,77,63,44,30.16,30.04,13,6,16,0.00
2013-2-12,32.0,25.7,18.0,24.0,17.2,11.0,77,69,61,30.26,30.16,22,8,28,0.00
2013-2-13,37.0,34.1,31.0,26.0,24.5,22.0,70,67,63,30.24,30.11,22,17,28,0.00
2013-2-14,38.0,32.1,25.0,27.0,24.9,22.0,88,74,58,30.35,30.14,19,12,25,0.00
2013-2-15,42.0,34.4,26.0,28.0,24.4,21.0,81,66,54,30.46,30.35,19,12,25,0.00
2013-2-16,45.0,36.2,27.0,25.0,22.9,18.0,84,59,42,30.38,29.90,18,10,25,0.00
2013-2-17,42.0,33.1,26.0,28.0,21.3,16.0,79,62,37,30.02,29.81,33,14,41,0.00
2013-2-18,37.0,29.4,22.0,21.0,16.5,11.0,80,59,40,30.07,29.86,19,9,24,0.00
2013-2-19,42.0,30.7,23.0,26.0,19.3,10.0,78,62,46,29.86,29.58,19,7,24,0.00
2013-2-20,34.0,28.5,25.0,27.0,23.3,19.0,87,81,63,29.80,29.58,22,10,28,0.00
2013-2-21,29.0,24.9,20.0,22.0,17.9,14.0,87,74,58,29.96,29.80,18,12,23,0.00
2013-2-22,33.0,28.8,24.0,24.0,21.8,20.0,90,75,64,30.06,29.88,28,15,35,0.00
2013-2-23,31.0,27.0,21.0,25.0,20.8,13.0,88,77,64,29.96,29.61,33,19,45,0.00
2013-2-24,28.0,17.8,0.0,20.0,10.2,-6.0,83,71,57,30.19,29.96,17,9,21,0.00
2013-2-25,30.0,24.2,10.0,23.0,15.3,6.0,88,69,51,30.18,29.95,19,12,28,0.00
2013-2-26,30.0,22.9,15.0,23.0,16.7,11.0,90,77,55,30.27,29.99,17,9,21,0.00
2013-2-27,33.0,19.8,4.0,17.0,10.4,0.0,85,67,46,30.37,30.27,18,-14,22,0.00
2013-2-28,34.0,23.4,8.0,28.0,15.8,4.0,88,73,50,30.44,30.31,10,4,14,0.00
2013-3-1,43.0,33.3,30.0,34.0,29.2,27.0,90,84,69,30.50,30.43,8,3,10,0.00
2013-3-2,44.0,34.6,24.0,35.0,28.9,21.0,92,80,58,30.47,30.00,10,-37,13,0.00
2013-3-3,44.0,38.5,28.0,36.0,29.6,18.0,86,70,55,30.01,29.79,37,20,48,0.00
2013-3-4,34.0,29.2,24.0,20.0,11.4,7.0,70,48,33,30.21,29.94,13,7,17,0.00
2013-3-5,45.0,33.1,26.0,24.0,15.1,7.0,83,49,32,30.20,29.88,20,9,29,0.00
2013-3-6,52.0,34.7,24.0,34.0,26.2,19.0,90,72,39,29.93,29.67,30,10,39,0.00
2013-3-7,41.0,35.2,31.0,27.0,23.5,19.0,74,62,49,30.01,29.89,16,9,19,0.00
2013-3-8,41.0,34.9,29.0,34.0,29.5,24.0,91,80,63,29.89,29.78,11,5,15,0.00
2013-3-9,44.0,32.6,22.0,25.0,20.0,14.0,91,64,31,30.25,29.83,21,7,29,0.00
2013-3-10,47.0,37.1,25.0,27.0,22.3,15.0,81,56,34,30.35,30.18,22,14,27,0.00
2013-3-11,51.0,42.2,38.0,37.0,26.6,16.0,81,55,35,30.20,30.08,23,15,29,0.00
2013-3-12,53.0,41.7,29.0,34.0,30.2,25.0,82,64,44,30.27,30.14,19,12,24,0.00
2013-3-13,62.0,45.7,30.0,36.0,31.0,26.0,88,60,32,30.30,30.19,18,9,22,0.00
2013-3-14,63.0,45.9,29.0,36.0,30.8,26.0,91,61,29,30.27,30.09,18,6,24,0.00
2013-3-15,61.0,50.7,39.0,32.0,29.0,26.0,69,44,27,30.10,29.99,25,14,31,0.00
2013-3-16,55.0,44.6,33.0,35.0,25.6,18.0,79,49,24,30.01,29.76,23,14,29,0.00
2013-3-17,42.0,36.4,27.0,36.0,17.1,3.0,85,49,21,29.95,29.70,37,22,48,0.00
2013-3-18,44.0,32.6,24.0,17.0,10.4,-99.9,66,44,30,30.04,29.92,32,20,43,0.00
2013-3-19,50.0,34.5,23.0,18.0,4.0,-99.9,70,37,14,30.22,30.04,20,8,27,0.00
2013-3-20,48.0,40.2,36.0,40.0,19.0,-99.9,87,57,14,30.08,29.64,30,15,38,0.00
2013-3-21,42.0,29.7,28.0,37.0,6.7,-99.9,86,55,40,29.94,29.69,35,25,47,0.00
2013-3-22,32.0,26.0,23.0,24.0,16.3,-99.9,89,72,52,29.99,29.85,20,12,28,0.00
2013-3-23,32.0,24.0,14.0,22.0,16.6,10.0,88,74,43,30.17,29.99,16,8,21,0.00
2013-3-24,35.0,26.0,18.0,20.0,12.0,-99.9,84,59,27,30.20,30.13,10,5,17,0.00
2013-3-25,46.0,23.2,13.0,24.0,-5.1,-99.9,77,47,29,30.17,30.00,10,4,11,0.00
2013-3-26,46.0,35.7,30.0,33.0,21.0,-99.9,85,63,45,30.00,29.91,12,5,18,0.00
2013-3-27,56.0,41.4,29.0,35.0,29.2,24.0,90,65,28,30.02,29.95,10,4,15,0.00
2013-3-28,63.0,45.7,28.0,34.0,29.1,24.0,88,57,24,30.06,29.98,20,6,27,0.00
2013-3-29,63.0,50.5,36.0,36.0,31.8,27.0,77,51,26,30.17,30.05,22,12,31,0.00
2013-3-30,60.0,47.8,33.0,33.0,27.3,-99.9,79,50,24,30.22,30.13,15,6,18,0.00
2013-3-31,67.0,47.3,26.0,29.0,21.8,9.0,82,44,11,30.13,29.92,13,5,18,0.00
2013-4-1,61.0,47.5,31.0,40.0,31.7,24.0,77,56,32,29.97,29.89,17,8,24,0.00
2013-4-2,64.0,49.8,38.0,40.0,35.0,27.0,86,61,24,30.07,29.96,14,8,21,0.00
2013-4-3,66.0,53.0,38.0,33.0,28.8,24.0,62,41,21,30.13,30.04,18,12,30,0.00
2013-4-4,69.0,58.8,43.0,38.0,32.2,29.0,64,37,23,30.07,29.86,22,13,29,0.00
2013-4-5,58.0,50.4,44.0,43.0,34.7,25.0,86,57,29,29.98,29.86,33,20,41,0.00
2013-4-6,56.0,46.9,38.0,35.0,31.4,26.0,76,55,37,29.97,29.91,26,15,40,0.00
2013-4-7,54.0,44.5,37.0,40.0,33.9,30.0,82,66,40,29.91,29.63,32,18,45,0.00
2013-4-8,42.0,37.7,32.0,34.0,27.4,12.0,90,68,41,29.76,29.54,29,15,45,0.00
2013-4-9,48.0,35.5,24.0,19.0,14.1,10.0,80,43,25,30.10,29.76,27,18,39,0.00
2013-4-10,56.0,40.6,18.0,37.0,22.9,13.0,80,52,29,30.14,29.85,21,12,28,0.00
2013-4-11,55.0,46.3,38.0,38.0,28.2,15.0,81,52,29,30.01,29.86,24,16,30,0.00
2013-4-12,56.0,43.9,31.0,27.0,20.2,14.0,70,41,20,30.04,29.74,22,12,29,0.00
2013-4-13,53.0,46.8,33.0,38.0,19.3,1.0,84,36,17,29.76,29.51,39,23,57,0.00
2013-4-14,45.0,32.6,15.0,16.0,9.3,4.0,64,40,19,29.83,29.69,18,11,30,0.00
2013-4-15,43.0,34.6,29.0,26.0,21.9,12.0,86,61,37,29.75,29.66,15,6,22,0.00
2013-4-16,43.0,33.3,25.0,24.0,13.7,5.0,82,48,24,30.00,29.72,23,15,31,0.00
2013-4-17,42.0,31.3,19.0,9.0,4.6,1.0,61,34,17,30.18,30.00,20,13,28,0.00
2013-4-18,50.0,33.5,11.0,19.0,9.2,1.0,68,39,20,30.27,30.17,18,10,28,0.00
2013-4-19,48.0,42.4,35.0,39.0,29.7,19.0,85,62,42,30.18,29.93,24,16,32,0.00
2013-4-20,56.0,46.0,39.0,38.0,32.8,22.0,89,64,28,30.05,29.94,32,20,41,0.00
2013-4-21,60.0,48.3,35.0,28.0,24.8,18.0,68,42,20,30.08,29.90,30,20,39,0.00
2013-4-22,45.0,38.2,30.0,30.0,20.2,8.0,91,52,24,30.21,29.91,22,12,28,0.00
2013-4-23,47.0,34.1,17.0,20.0,10.4,-5.0,76,41,11,30.24,30.07,13,6,17,0.00
2013-4-24,55.0,39.6,20.0,20.0,13.6,2.0,74,39,11,30.26,30.08,11,6,16,0.00
2013-4-25,64.0,46.6,23.0,24.0,15.8,7.0,73,35,11,30.08,29.95,23,10,30,0.00
2013-4-26,68.0,51.5,30.0,29.0,21.0,16.0,60,33,15,30.24,30.02,15,9,26,0.00
2013-4-27,74.0,57.2,34.0,31.0,26.6,21.0,68,34,15,30.25,30.04,25,12,30,0.00
2013-4-28,67.0,56.4,40.0,30.0,25.8,22.0,60,32,19,30.05,29.91,34,20,42,0.00
2013-4-29,64.0,53.5,44.0,32.0,27.9,22.0,54,38,24,29.94,29.72,38,23,50,0.00
2013-4-30,53.0,42.4,28.0,31.0,19.0,10.0,90,42,18,30.07,29.75,27,16,39,0.00
2013-5-1,51.0,38.3,23.0,30.0,14.4,0.0,90,44,12,30.54,30.07,19,7,26,0.00
2013-5-2,61.0,43.0,20.0,21.0,13.2,10.0,65,33,14,30.62,30.33,13,5,17,0.00
2013-5-3,67.0,52.7,33.0,31.0,19.2,8.0,62,31,10,30.33,30.00,18,6,28,0.00
2013-5-4,62.0,52.3,45.0,41.0,33.3,28.0,63,49,28,30.04,29.94,25,14,37,0.00
2013-5-5,69.0,56.4,40.0,37.0,32.4,29.0,75,43,23,29.97,29.86,17,8,22,0.00
2013-5-6,71.0,54.1,34.0,45.0,35.0,28.0,85,51,23,29.93,29.85,21,6,36,0.00
2013-5-7,62.0,54.7,48.0,45.0,41.8,38.0,77,62,43,29.98,29.89,29,10,36,0.00
2013-5-8,69.0,53.9,38.0,46.0,38.5,33.0,81,58,32,30.10,29.98,23,7,32,0.00
2013-5-9,75.0,55.6,36.0,44.0,36.8,25.0,86,54,16,30.17,30.06,38,6,52,0.00
2013-5-10,77.0,58.6,39.0,44.0,31.8,-99.9,83,46,12,30.25,30.16,14,7,22,0.00
2013-5-11,80.0,59.5,38.0,46.0,32.9,-99.9,71,41,15,30.31,30.17,16,6,23,0.00
2013-5-12,85.0,65.5,42.0,47.0,35.3,30.0,69,37,14,30.24,30.08,19,7,26,0.00
2013-5-13,87.0,71.6,48.0,48.0,37.8,30.0,72,32,17,30.13,29.94,16,-18,21,0.00
2013-5-14,77.0,65.9,56.0,45.0,37.8,29.0,55,37,22,30.08,29.91,24,16,31,0.00
2013-5-15,78.0,63.6,50.0,43.0,37.5,30.0,68,40,19,29.99,29.82,19,11,27,0.00
2013-5-16,70.0,57.0,50.0,44.0,25.8,-99.9,78,46,28,29.90,29.83,22,12,32,0.00
2013-5-17,58.0,52.0,49.0,47.0,40.5,-99.9,86,74,59,29.92,29.86,13,8,20,0.00
2013-5-20,66.0,59.8,52.0,44.0,41.3,37.0,73,51,35,30.18,30.06,10,6,15,0.00
2013-5-21,71.0,59.2,41.0,44.0,38.3,32.0,85,50,27,30.07,29.65,27,12,35,0.00
2013-5-22,66.0,51.5,42.0,39.0,29.2,19.0,59,43,27,29.93,29.64,25,15,34,0.00
2013-5-23,63.0,48.2,35.0,36.0,29.0,23.0,83,50,28,29.95,29.77,24,8,30,0.00
2013-5-24,69.0,54.7,37.0,35.0,22.0,16.0,73,31,13,30.06,29.88,20,12,31,0.00
2013-5-25,67.0,53.6,35.0,37.0,30.2,16.0,73,43,18,29.95,29.84,18,9,23,0.00
2013-5-26,72.0,56.0,40.0,42.0,33.1,27.0,77,46,21,29.96,29.84,21,6,26,0.00
2013-5-27,65.0,54.8,43.0,40.0,34.4,25.0,74,48,22,30.02,29.84,24,13,28,0.00
2013-5-28,54.0,49.4,42.0,47.0,42.7,37.0,87,77,61,29.89,29.75,17,9,23,0.00
2013-5-29,63.0,53.3,46.0,44.0,38.6,33.0,86,60,33,29.81,29.74,23,15,30,0.00
2013-5-30,63.0,52.5,42.0,39.0,32.7,24.0,77,50,24,29.98,29.80,28,17,37,0.00
2013-5-31,66.0,53.2,40.0,35.0,30.4,23.0,73,44,22,30.21,29.98,19,14,24,0.00
2013-6-1,73.0,57.3,36.0,38.0,29.5,23.0,67,37,18,30.24,30.01,15,7,19,0.00
2013-6-2,83.0,65.5,41.0,42.0,33.7,24.0,76,34,16,30.01,29.69,24,11,38,0.00
2013-6-3,70.0,56.1,36.0,37.0,31.5,24.0,79,42,21,30.02,29.83,18,10,26,0.00
2013-6-4,71.0,58.1,39.0,38.0,31.1,24.0,67,38,21,30.11,29.97,14,7,19,0.00
2013-6-5,77.0,60.1,37.0,45.0,33.9,27.0,80,41,16,30.15,30.02,13,6,16,0.00
2013-6-6,81.0,65.8,44.0,50.0,38.5,28.0,76,39,18,30.09,30.00,22,7,36,0.00
2013-6-7,84.0,66.1,46.0,49.0,43.0,37.0,83,48,20,30.03,29.83,28,-12,35,0.00
2013-6-8,81.0,67.9,53.0,48.0,40.1,30.0,65,39,18,30.05,29.86,19,13,24,0.00
2013-6-9,87.0,72.5,53.0,51.0,39.6,32.0,59,32,17,30.02,29.84,21,13,28,0.00
2013-6-10,91.0,76.0,55.0,50.0,38.6,18.0,68,31,8,29.86,29.67,29,10,37,0.00
2013-6-11,81.0,71.5,55.0,48.0,39.9,22.0,57,33,11,29.96,29.69,26,15,34,0.00
2013-6-12,76.0,66.3,57.0,56.0,46.3,36.0,75,50,28,30.07,29.93,21,10,27,0.10
2013-6-13,72.0,60.2,50.0,50.0,42.5,33.0,85,54,26,30.05,29.86,25,12,37,0.00
2013-6-14,65.0,53.4,43.0,38.0,31.8,22.0,67,46,19,30.21,30.05,23,14,31,0.00
2013-6-15,78.0,57.1,32.0,38.0,28.9,21.0,77,40,12,30.13,29.98,10,5,14,0.00
2013-6-16,87.0,65.9,42.0,47.0,37.1,27.0,74,40,13,30.04,29.96,18,6,26,0.00
2013-6-17,87.0,68.5,44.0,45.0,36.3,21.0,79,36,9,30.08,29.93,12,-1,17,0.00
2013-6-18,89.0,69.6,46.0,42.0,33.3,18.0,70,31,10,29.93,29.59,18,7,22,0.00
2013-6-19,79.0,60.1,45.0,42.0,35.6,18.0,69,42,10,30.04,29.57,32,16,47,0.00
2013-7-10,-200.0,0.0,200.0,-99.9,-99.9,-99.9,0,0,100,30.11,30.10,4,4,5,0.00
2013-7-13,75.0,75.0,75.0,41.0,41.0,41.0,29,29,29,29.96,29.96,16,16,22,0.00
2013-7-14,84.0,84.0,84.0,-99.9,-99.9,-99.9,24,24,24,30.13,30.13,6,6,10,0.00
2013-11-9,-200.0,0.0,200.0,-99.9,-99.9,-99.9,0,0,100,30.18,30.18,3,3,3,0.00
2013-11-11,32.0,32.0,32.0,23.0,23.0,23.0,70,70,70,30.24,30.24,4,4,6,0.00
2013-11-30,-200.0,0.0,200.0,-99.9,-99.9,-99.9,0,0,100,30.27,30.27,16,16,23,0.00
2013-12-7,-200.0,0.0,200.0,-99.9,-99.9,-99.9,0,0,100,29.81,29.81,8,8,10,0.00